• En España
  • Lista de países
  • Para 7 días
  • Temperatura del agua
  • Mapa Satelital
  • El tiempo en el mapa
  • Informadores
  • user-avatar
    Iniciar sesión

    Tiempo cada hora Quito

    Hoy, 24 Agosto, Jueves

    Tiempo Temperatura Precipitaciones Viento Presión Humedad
    00:00 +18°C° 0 mm 1 mps 622 mmHg 24%
    01:00 +16°C° 0 mm 1 mps 622 mmHg 26%
    02:00 +16°C° 0 mm 1 mps 622 mmHg 27%
    03:00 +14°C° 0 mm 0 mps 621 mmHg 28%
    04:00 +13°C° 0 mm 0 mps 621 mmHg 29%
    05:00 +14°C° 0 mm 0 mps 622 mmHg 29%
    06:00 +16°C° 0 mm 1 mps 622 mmHg 29%
    07:00 +16°C° 0 mm 1 mps 623 mmHg 29%
    08:00 +21°C° 0 mm 1 mps 624 mmHg 24%
    09:00 +24°C° 0 mm 2 mps 625 mmHg 19%
    10:00 +28°C° 0 mm 2 mps 626 mmHg 15%
    11:00 +30°C° 0 mm 2 mps 626 mmHg 13%
    12:00 +31°C° 0 mm 2 mps 626 mmHg 12%
    13:00 +33°C° 0 mm 1 mps 626 mmHg 11%
    14:00 +32°C° 0 mm 1 mps 625 mmHg 11%
    15:00 +32°C° 0 mm 1 mps 624 mmHg 11%
    16:00 +31°C° 0 mm 1 mps 624 mmHg 11%
    17:00 +28°C° 0 mm 1 mps 623 mmHg 14%
    18:00 +26°C° 0 mm 1 mps 622 mmHg 16%
    19:00 +23°C° 0 mm 1 mps 622 mmHg 19%
    20:00 +22°C° 0 mm 1 mps 622 mmHg 19%
    21:00 +21°C° 0 mm 1 mps 622 mmHg 20%
    22:00 +21°C° 0 mm 1 mps 623 mmHg 21%
    23:00 +20°C° 0 mm 1 mps 622 mmHg 21%

    Mañana, 25 Agosto, Viernes

    Tiempo Temperatura Precipitaciones Viento Presión Humedad
    00:00 +19°C° 0 mm 1 mps 622 mmHg 22%
    01:00 +19°C° 0 mm 1 mps 622 mmHg 23%
    02:00 +18°C° 0 mm 1 mps 622 mmHg 24%
    03:00 +16°C° 0 mm 1 mps 621 mmHg 26%
    04:00 +16°C° 0 mm 2 mps 621 mmHg 27%
    05:00 +16°C° 0 mm 2 mps 621 mmHg 29%
    06:00 +16°C° 0 mm 2 mps 622 mmHg 32%
    07:00 +16°C° 0 mm 2 mps 622 mmHg 34%
    08:00 +20°C° 0 mm 2 mps 623 mmHg 28%
    09:00 +24°C° 0 mm 2 mps 624 mmHg 21%
    10:00 +28°C° 0 mm 3 mps 625 mmHg 15%
    11:00 +29°C° 0 mm 3 mps 625 mmHg 14%
    12:00 +31°C° 0 mm 3 mps 625 mmHg 12%
    13:00 +33°C° 0 mm 3 mps 624 mmHg 10%
    14:00 +33°C° 0 mm 3 mps 624 mmHg 10%
    15:00 +32°C° 0 mm 2 mps 623 mmHg 10%
    16:00 +32°C° 0 mm 2 mps 623 mmHg 10%
    17:00 +29°C° 0 mm 2 mps 622 mmHg 12%
    18:00 +26°C° 0 mm 1 mps 622 mmHg 15%
    19:00 +23°C° 0 mm 1 mps 621 mmHg 17%
    20:00 +23°C° 0 mm 1 mps 621 mmHg 17%
    21:00 +22°C° 0 mm 1 mps 622 mmHg 18%
    22:00 +21°C° 0 mm 1 mps 622 mmHg 18%
    23:00 +20°C° 0 mm 1 mps 622 mmHg 19%

    Pasado mañana, 26 Agosto, Sábado

    Tiempo Temperatura Precipitaciones Viento Presión Humedad
    00:00 +20°C° 0 mm 1 mps 622 mmHg 20%
    01:00 +19°C° 0 mm 1 mps 621 mmHg 20%
    02:00 +17°C° 0 mm 2 mps 621 mmHg 21%
    03:00 +17°C° 0 mm 2 mps 621 mmHg 21%
    04:00 +16°C° 0 mm 2 mps 620 mmHg 21%
    05:00 +16°C° 0 mm 2 mps 621 mmHg 21%
    06:00 +17°C° 0 mm 2 mps 621 mmHg 20%
    07:00 +17°C° 0 mm 2 mps 622 mmHg 20%
    08:00 +21°C° 0 mm 2 mps 623 mmHg 16%
    09:00 +26°C° 0 mm 3 mps 624 mmHg 13%
    10:00 +30°C° 0 mm 3 mps 625 mmHg 10%
    11:00 +31°C° 0 mm 3 mps 625 mmHg 9%
    12:00 +33°C° 0 mm 3 mps 624 mmHg 8%
    13:00 +35°C° 0 mm 3 mps 624 mmHg 8%
    14:00 +35°C° 0 mm 2 mps 623 mmHg 8%
    15:00 +34°C° 0 mm 2 mps 623 mmHg 8%
    16:00 +33°C° 0 mm 1 mps 622 mmHg 7%
    17:00 +30°C° 0 mm 1 mps 622 mmHg 9%
    18:00 +27°C° 0 mm 1 mps 621 mmHg 11%
    19:00 +24°C° 0 mm 1 mps 621 mmHg 12%
    20:00 +23°C° 0 mm 1 mps 621 mmHg 13%
    21:00 +22°C° 0 mm 1 mps 621 mmHg 14%
    22:00 +21°C° 0 mm 1 mps 621 mmHg 14%
    23:00 +21°C° 0 mm 1 mps 621 mmHg 15%

    27 Agosto, Domingo

    Tiempo Temperatura Precipitaciones Viento Presión Humedad
    00:00 +20°C° 0 mm 1 mps 621 mmHg 16%
    01:00 +19°C° 0 mm 1 mps 620 mmHg 16%
    02:00 +18°C° 0 mm 1 mps 620 mmHg 16%
    03:00 +18°C° 0 mm 1 mps 620 mmHg 17%
    04:00 +16°C° 0 mm 1 mps 619 mmHg 17%
    05:00 +16°C° 0 mm 1 mps 620 mmHg 17%
    06:00 +18°C° 0 mm 1 mps 621 mmHg 18%
    07:00 +16°C° 0 mm 0 mps 622 mmHg 18%
    08:00 +22°C° 0 mm 1 mps 623 mmHg 16%
    09:00 +26°C° 0 mm 2 mps 624 mmHg 14%
    10:00 +30°C° 0 mm 3 mps 625 mmHg 11%
    11:00 +31°C° 0 mm 3 mps 625 mmHg 11%
    12:00 +33°C° 0 mm 4 mps 624 mmHg 10%
    13:00 +34°C° 0 mm 4 mps 624 mmHg 9%
    14:00 +34°C° 0 mm 3 mps 623 mmHg 9%
    15:00 +34°C° 0 mm 3 mps 623 mmHg 9%
    16:00 +34°C° 0 mm 3 mps 623 mmHg 9%
    17:00 +30°C° 0 mm 2 mps 622 mmHg 11%
    18:00 +27°C° 0 mm 1 mps 622 mmHg 13%
    19:00 +22°C° 0 mm 0 mps 621 mmHg 15%
    20:00 +21°C° 0 mm 0 mps 622 mmHg 16%
    21:00 +20°C° 0 mm 0 mps 622 mmHg 17%
    22:00 +20°C° 0 mm 0 mps 622 mmHg 18%
    23:00 +19°C° 0 mm 0 mps 621 mmHg 19%

    28 Agosto, Lunes

    Tiempo Temperatura Precipitaciones Viento Presión Humedad
    00:00 +18°C° 0 mm 0 mps 621 mmHg 21%
    01:00 +17°C° 0 mm 0 mps 621 mmHg 23%
    02:00 +19°C° 0 mm 1 mps 621 mmHg 26%
    03:00 +18°C° 0 mm 1 mps 621 mmHg 30%
    04:00 +18°C° 0 mm 1 mps 621 mmHg 34%
    05:00 +19°C° 0 mm 1 mps 621 mmHg 35%
    06:00 +19°C° 0 mm 1 mps 622 mmHg 37%
    07:00 +20°C° 0 mm 1 mps 623 mmHg 39%
    08:00 +24°C° 0 mm 1 mps 624 mmHg 33%
    09:00 +28°C° 0 mm 1 mps 625 mmHg 27%
    10:00 +32°C° 0 mm 1 mps 626 mmHg 21%
    11:00 +32°C° 0 mm 2 mps 625 mmHg 18%
    12:00 +34°C° 0 mm 3 mps 625 mmHg 16%
    13:00 +34°C° 0 mm 3 mps 624 mmHg 14%
    14:00 +34°C° 0 mm 3 mps 623 mmHg 14%
    15:00 +34°C° 0 mm 3 mps 623 mmHg 13%
    16:00 +34°C° 0 mm 2 mps 623 mmHg 13%
    17:00 +30°C° 0 mm 2 mps 622 mmHg 15%
    18:00 +28°C° 0 mm 1 mps 622 mmHg 17%
    19:00 +25°C° 0 mm 1 mps 622 mmHg 20%
    20:00 +24°C° 0 mm 1 mps 622 mmHg 20%
    21:00 +21°C° 0 mm 0 mps 622 mmHg 21%
    22:00 +20°C° 0 mm 0 mps 622 mmHg 22%
    23:00 +22°C° 0 mm 1 mps 622 mmHg 26%

    29 Agosto, Martes

    Tiempo Temperatura Precipitaciones Viento Presión Humedad
    00:00 +21°C° 0 mm 1 mps 622 mmHg 29%
    01:00 +20°C° 0 mm 1 mps 621 mmHg 33%
    02:00 +19°C° 0 mm 1 mps 621 mmHg 40%
    03:00 +18°C° 0 mm 1 mps 621 mmHg 47%
    04:00 +17°C° 0 mm 2 mps 621 mmHg 53%
    05:00 +18°C° 0 mm 1 mps 621 mmHg 51%
    06:00 +19°C° 0 mm 1 mps 622 mmHg 49%
    07:00 +19°C° 0 mm 1 mps 623 mmHg 47%
    08:00 +23°C° 0 mm 1 mps 624 mmHg 38%
    09:00 +27°C° 0 mm 1 mps 625 mmHg 29%
    10:00 +31°C° 0 mm 1 mps 626 mmHg 21%
    11:00 +32°C° 0 mm 2 mps 625 mmHg 18%
    12:00 +34°C° 0 mm 2 mps 625 mmHg 16%
    13:00 +35°C° 0 mm 3 mps 624 mmHg 14%
    14:00 +34°C° 0 mm 3 mps 624 mmHg 13%
    15:00 +34°C° 0 mm 3 mps 623 mmHg 13%
    16:00 +34°C° 0 mm 2 mps 623 mmHg 13%
    17:00 +30°C° 0 mm 2 mps 622 mmHg 15%
    18:00 +27°C° 0 mm 1 mps 622 mmHg 18%
    19:00 +25°C° 0 mm 1 mps 621 mmHg 21%
    20:00 +24°C° 0 mm 1 mps 621 mmHg 22%
    21:00 +21°C° 0 mm 0 mps 622 mmHg 23%
    22:00 +20°C° 0 mm 0 mps 622 mmHg 24%
    23:00 +19°C° 0 mm 0 mps 622 mmHg 26%
    Mostrar más